COSMOS 1678 DEB *

Satellite information

Favourite Embed

Satellite Type and Status

DEBRISIN ORBIT

Key statistics

Satellite COSMOS 1678 DEB * at a glance.

Uptime

14668

Days in orbit

Revolutions

≈ 14.7

Per day

Orbit

LEO

Low Earth Orbit

Inclination

74.0

Latest

Satellite identification and parameters

Extended collection of information and parameters for COSMOS 1678 DEB *.

Object identification

Identified? True

Debris? True

Object name: COSMOS 1678 DEB *

International designator: 1985-077K

Object number (NORAD): 18608

Object ID (CCSDS): 18608

Country: COMMONWEALTH OF INDEPENDENT STATES (CIS)

Current information (Y/N): Y

RCS size: SMALL

Orbital parameters

Period: 98.271 minutes

Inclination: 74.0422 deg

SMA: 7054.137 km

Apoapsis: 682.589 km

Periapsis: 669.416 km

RAAN: 166.4873 deg

Eccentricy: 0.00093372

Argument of periapsis: 235.4113 deg

Mean anomaly: 124.6175 deg

Mean motion: 14.65334979 rev/day

Mean motion (dot): 0.00003043 rev/day2

B* drag term: 0.00056875019 1/REarth

Two-line elements (TLE)

Creation date: Oct. 26, 2025, 2:54 a.m.

Reference frame: TEME

Reference center: EARTH

Epoch: Oct. 25, 2025, 5:55 p.m. UTC

TLE line 0: 0 COSMOS 1678 DEB *

TLE line 1: 1 18608U 85077K 25298.74702650 .00003043 00000-0 56875-3 0 9991

TLE line 2: 2 18608 74.0422 166.4873 0009337 235.4113 124.6175 14.65334979 44982

Live tracking on map

Real-time ground track for satellite COSMOS 1678 DEB *.

In-orbit conjunctions

A list of the most updated potential collisions computed for object COSMOS 1678 DEB *.

Target Orbit TCA Probability of collision Miss distance Type
CZ-6A DEB LEO 2025-01-19 05:25:54 0.0004712236 324.0 (m) DEBRIS
SINAH 1 SSO 2024-10-23 06:56:06 0.003185198 35.0 (m) PAYLOAD

Associated space launch

Resurs-F1 (17F41) type film-return Earth observation satellite

COSMOS 1678 DEB * was lifted into orbit during the mission ‘Soyuz U | Resurs-F1 17F41 53L’, on board a Soyuz U space rocket.

The launch took place on Aug. 29, 1985, 10:15 a.m. from 41/1.

For more information about the launch, click the button.

Launch to space Soyuz U | Resurs-F1 17F41 53L
Soyuz U | Resurs-F1 17F41 53L

Agency: N/A

Status: Launch Successful

Launch date: Aug. 29, 1985, 10:15 a.m. UTC

Rocket: Soyuz U

Launch pad: 41/1

Location: Plesetsk Cosmodrome, Russian Federation

...

Latest news about this satellite

There are no fresh news available about this satellite. Check back as we update our databases every day.


Newsletter sign-up

Weekly statistics, charts and insights to help you stay on top of the space industry.